NDF3VR EDDH-EDDB

Flight info

Callsign NDF3VR
Flight time 0h 34m
Altitude 23000
Route RAMAR6G/33 RAMAR Z998 PITEN L619 VIBIS T209 OGBER OGBER1R
Aircraft A20N/M-SDE2E3FGHIRWXY/LB1

Departure

Time 2026-05-06 18:26
Airport Hamburg Helmut Schmidt Airport (EDDH)

Arrival

Time 2026-05-06 19:01
Airport Berlin Brandenburg Airport (EDDB)
Time Latitude Longitude Altitude Speed Heading
2026-05-06 17:57 53.63332 10.00348 49 ft 0 kts 86°
2026-05-06 18:14 53.63332 10.00343 49 ft 2 kts 86°
2026-05-06 18:14 53.63331 10.00318 49 ft 2 kts 86°
2026-05-06 18:14 53.63330 10.00293 49 ft 2 kts 86°
2026-05-06 18:15 53.63329 10.00267 49 ft 2 kts 86°
2026-05-06 18:15 53.63328 10.00245 49 ft 1 kts 108°
2026-05-06 18:15 53.63335 10.00231 49 ft 1 kts 165°
2026-05-06 18:15 53.63343 10.00231 49 ft 0 kts 184°
2026-05-06 18:16 53.63347 10.00231 49 ft 0 kts 177°
2026-05-06 18:21 53.63345 10.00231 49 ft 0 kts 178°
2026-05-06 18:21 53.63326 10.00234 49 ft 5 kts 176°
2026-05-06 18:21 53.63269 10.00240 48 ft 9 kts 176°
2026-05-06 18:21 53.63200 10.00248 48 ft 10 kts 176°
2026-05-06 18:22 53.63118 10.00258 48 ft 12 kts 175°
2026-05-06 18:22 53.63035 10.00227 47 ft 11 kts 212°
2026-05-06 18:22 53.62980 10.00163 47 ft 10 kts 212°
2026-05-06 18:22 53.62918 10.00101 47 ft 10 kts 211°
2026-05-06 18:23 53.62873 10.00046 47 ft 8 kts 227°
2026-05-06 18:23 53.62855 9.99995 47 ft 0 kts 243°
2026-05-06 18:25 53.62853 9.99987 47 ft 3 kts 243°
2026-05-06 18:25 53.62834 9.99926 46 ft 8 kts 243°
2026-05-06 18:25 53.62816 9.99824 46 ft 9 kts 316°
2026-05-06 18:25 53.62863 9.99758 46 ft 13 kts 324°
2026-05-06 18:26 53.63176 9.99479 46 ft 92 kts 333°
2026-05-06 18:26 53.63965 9.98777 114 ft 153 kts 334°
2026-05-06 18:26 53.64916 9.97918 749 ft 160 kts 336°
2026-05-06 18:26 53.65887 9.97076 1624 ft 159 kts 339°
2026-05-06 18:27 53.66874 9.96239 2346 ft 167 kts 340°
2026-05-06 18:27 53.67964 9.95336 2958 ft 184 kts 341°
2026-05-06 18:27 53.69211 9.94710 3562 ft 197 kts 357°
2026-05-06 18:27 53.70639 9.94609 4231 ft 213 kts
2026-05-06 18:28 53.72078 9.94652 5234 ft 214 kts
2026-05-06 18:28 53.73434 9.95523 6184 ft 212 kts 40°
2026-05-06 18:28 53.74360 9.97462 6922 ft 224 kts 63°
2026-05-06 18:28 53.75059 9.99931 7578 ft 242 kts 64°
2026-05-06 18:29 53.75807 10.02567 8225 ft 261 kts 63°
2026-05-06 18:29 53.76614 10.05393 8933 ft 275 kts 63°
2026-05-06 18:29 53.77448 10.08307 9659 ft 282 kts 63°
2026-05-06 18:29 53.78300 10.11305 10465 ft 290 kts 65°
2026-05-06 18:30 53.78735 10.14701 10987 ft 310 kts 92°
2026-05-06 18:30 53.78104 10.18251 11438 ft 329 kts 119°
2026-05-06 18:30 53.76720 10.21483 11896 ft 348 kts 128°
2026-05-06 18:30 53.75159 10.24724 12299 ft 366 kts 128°
2026-05-06 18:31 53.73560 10.28152 12783 ft 380 kts 127°
2026-05-06 18:31 53.71970 10.31719 13477 ft 386 kts 126°
2026-05-06 18:31 53.70371 10.35418 14256 ft 390 kts 126°
2026-05-06 18:31 53.68803 10.39115 15006 ft 394 kts 126°
2026-05-06 18:32 53.67223 10.42874 15765 ft 397 kts 126°
2026-05-06 18:32 53.65618 10.46709 16480 ft 400 kts 126°
2026-05-06 18:32 53.64019 10.50534 17147 ft 404 kts 126°
2026-05-06 18:32 53.62404 10.54403 17785 ft 409 kts 126°
2026-05-06 18:33 53.60744 10.58376 18417 ft 413 kts 126°
2026-05-06 18:33 53.59109 10.62287 19033 ft 417 kts 126°
2026-05-06 18:33 53.57427 10.66304 19660 ft 421 kts 127°
2026-05-06 18:33 53.55740 10.70330 20270 ft 424 kts 127°
2026-05-06 18:34 53.54032 10.74400 20882 ft 428 kts 127°
2026-05-06 18:34 53.52326 10.78460 21476 ft 431 kts 127°
2026-05-06 18:34 53.50574 10.82624 22069 ft 434 kts 127°
2026-05-06 18:34 53.48828 10.86767 22612 ft 437 kts 127°
2026-05-06 18:35 53.47085 10.90896 22861 ft 439 kts 127°
2026-05-06 18:35 53.45314 10.95086 22869 ft 438 kts 127°
2026-05-06 18:35 53.43562 10.99227 22870 ft 438 kts 127°
2026-05-06 18:35 53.41802 11.03378 22871 ft 438 kts 127°
2026-05-06 18:36 53.40035 11.07540 22873 ft 438 kts 127°
2026-05-06 18:36 53.38272 11.11686 22867 ft 438 kts 127°
2026-05-06 18:36 53.36496 11.15853 22869 ft 438 kts 127°
2026-05-06 18:36 53.34739 11.19971 22869 ft 438 kts 127°
2026-05-06 18:37 53.32979 11.24086 22869 ft 438 kts 127°
2026-05-06 18:37 53.31797 11.26844 22868 ft 438 kts 127°
2026-05-06 18:37 53.29429 11.32362 22867 ft 438 kts 127°
2026-05-06 18:37 53.27554 11.36416 22861 ft 437 kts 131°
2026-05-06 18:38 53.25573 11.40186 22857 ft 436 kts 135°
2026-05-06 18:38 53.23425 11.43783 22859 ft 435 kts 139°
2026-05-06 18:38 53.21205 11.47199 22855 ft 435 kts 139°
2026-05-06 18:38 53.18997 11.50584 22852 ft 434 kts 140°
2026-05-06 18:39 53.16771 11.53992 22850 ft 434 kts 140°
2026-05-06 18:39 53.14563 11.57370 22850 ft 434 kts 140°
2026-05-06 18:39 53.12328 11.60787 22848 ft 434 kts 140°
2026-05-06 18:40 53.07877 11.67587 22851 ft 434 kts 141°
2026-05-06 18:40 53.05628 11.71016 22848 ft 434 kts 141°
2026-05-06 18:40 53.03416 11.74378 22847 ft 434 kts 141°
2026-05-06 18:40 53.01279 11.77913 22835 ft 437 kts 132°
2026-05-06 18:41 52.99679 11.82259 22840 ft 443 kts 116°
2026-05-06 18:41 52.98812 11.87156 22846 ft 449 kts 101°
2026-05-06 18:41 52.98569 11.92277 22677 ft 451 kts 95°
2026-05-06 18:41 52.98444 11.97448 22402 ft 447 kts 96°
2026-05-06 18:42 52.97809 12.02444 21653 ft 439 kts 115°
2026-05-06 18:42 52.96230 12.06631 20525 ft 435 kts 136°
2026-05-06 18:42 52.93974 12.09980 19623 ft 431 kts 144°
2026-05-06 18:42 52.91676 12.13016 18944 ft 426 kts 144°
2026-05-06 18:43 52.89389 12.16098 18372 ft 419 kts 143°
2026-05-06 18:43 52.87209 12.19147 17850 ft 412 kts 143°
2026-05-06 18:43 52.84992 12.22343 17252 ft 407 kts 142°
2026-05-06 18:43 52.82875 12.25450 16651 ft 404 kts 141°
2026-05-06 18:44 52.80797 12.28536 16049 ft 401 kts 141°
2026-05-06 18:44 52.78735 12.31617 15441 ft 398 kts 140°
2026-05-06 18:44 52.76694 12.34673 14831 ft 394 kts 140°
2026-05-06 18:44 52.74686 12.37684 14250 ft 391 kts 140°
2026-05-06 18:45 52.72677 12.40698 13654 ft 388 kts 140°
2026-05-06 18:45 52.70711 12.43645 13065 ft 386 kts 140°
2026-05-06 18:45 52.68724 12.46621 12518 ft 382 kts 140°
2026-05-06 18:45 52.67437 12.48547 12161 ft 379 kts 140°
2026-05-06 18:46 52.64840 12.52429 11386 ft 376 kts 140°
2026-05-06 18:46 52.62911 12.55309 10965 ft 368 kts 140°
2026-05-06 18:46 52.61048 12.58091 10697 ft 355 kts 140°
2026-05-06 18:46 52.59255 12.60764 10502 ft 343 kts 140°
2026-05-06 18:47 52.57520 12.63348 10296 ft 330 kts 140°
2026-05-06 18:47 52.55849 12.65833 10116 ft 319 kts 141°
2026-05-06 18:47 52.54211 12.68217 9957 ft 306 kts 145°
2026-05-06 18:47 52.52399 12.69832 9779 ft 292 kts 161°
2026-05-06 18:48 52.50513 12.70951 9313 ft 293 kts 164°
2026-05-06 18:48 52.48569 12.71993 8813 ft 295 kts 165°
2026-05-06 18:48 52.46639 12.72997 8539 ft 288 kts 165°
2026-05-06 18:48 52.44735 12.73980 8095 ft 289 kts 165°
2026-05-06 18:49 52.42788 12.74965 7541 ft 293 kts 165°
2026-05-06 18:49 52.40837 12.75921 7050 ft 294 kts 165°
2026-05-06 18:49 52.38890 12.76866 6818 ft 285 kts 165°
2026-05-06 18:49 52.37005 12.77782 6816 ft 281 kts 165°
2026-05-06 18:50 52.35131 12.78687 6817 ft 282 kts 165°
2026-05-06 18:50 52.33252 12.79590 6813 ft 282 kts 165°
2026-05-06 18:50 52.31359 12.80511 6806 ft 281 kts 165°
2026-05-06 18:50 52.29502 12.81430 6808 ft 281 kts 165°
2026-05-06 18:51 52.27626 12.82371 6808 ft 281 kts 163°
2026-05-06 18:51 52.25938 12.83895 6799 ft 284 kts 139°
2026-05-06 18:51 52.24813 12.86509 6799 ft 275 kts 110°
2026-05-06 18:51 52.24405 12.89438 6769 ft 260 kts 98°
2026-05-06 18:52 52.24183 12.92382 6297 ft 265 kts 95°
2026-05-06 18:52 52.23991 12.95355 5793 ft 266 kts 95°
2026-05-06 18:52 52.23804 12.98315 5285 ft 259 kts 95°
2026-05-06 18:52 52.23873 13.01132 4977 ft 241 kts 70°
2026-05-06 18:53 52.24710 13.03329 4969 ft 217 kts 43°
2026-05-06 18:53 52.25706 13.04959 5008 ft 191 kts 46°
2026-05-06 18:53 52.26487 13.06638 5011 ft 183 kts 56°
2026-05-06 18:53 52.27096 13.08463 4989 ft 183 kts 62°
2026-05-06 18:54 52.27648 13.10329 4977 ft 182 kts 63°
2026-05-06 18:54 52.28171 13.12209 4820 ft 182 kts 64°
2026-05-06 18:54 52.28663 13.14094 4579 ft 178 kts 65°
2026-05-06 18:54 52.29121 13.15941 4342 ft 176 kts 66°
2026-05-06 18:55 52.29567 13.17796 4097 ft 175 kts 67°
2026-05-06 18:55 52.30006 13.19658 3861 ft 173 kts 67°
2026-05-06 18:55 52.30431 13.21483 3630 ft 170 kts 67°
2026-05-06 18:55 52.30846 13.23270 3429 ft 169 kts 67°
2026-05-06 18:56 52.31263 13.25067 3188 ft 167 kts 67°
2026-05-06 18:56 52.31670 13.26820 2958 ft 165 kts 67°
2026-05-06 18:56 52.32077 13.28569 2726 ft 164 kts 67°
2026-05-06 18:56 52.32475 13.30274 2499 ft 158 kts 66°
2026-05-06 18:57 52.32854 13.31899 2280 ft 145 kts 66°
2026-05-06 18:57 52.33191 13.33342 2079 ft 130 kts 66°
2026-05-06 18:57 52.33510 13.34698 1907 ft 126 kts 65°
2026-05-06 18:57 52.33823 13.36024 1754 ft 125 kts 65°
2026-05-06 18:58 52.34138 13.37360 1589 ft 125 kts 65°
2026-05-06 18:58 52.34452 13.38695 1425 ft 125 kts 65°
2026-05-06 18:58 52.34764 13.40010 1267 ft 125 kts 66°
2026-05-06 18:58 52.35076 13.41336 1091 ft 124 kts 66°
2026-05-06 18:59 52.35384 13.42643 911 ft 124 kts 66°
2026-05-06 18:59 52.35697 13.43960 740 ft 123 kts 66°
2026-05-06 18:59 52.36006 13.45268 587 ft 123 kts 67°
2026-05-06 18:59 52.36311 13.46581 407 ft 122 kts 67°
2026-05-06 19:00 52.36623 13.47864 236 ft 122 kts 67°
2026-05-06 19:00 52.36924 13.49147 152 ft 113 kts 69°
2026-05-06 19:00 52.37149 13.50089 153 ft 63 kts 69°
2026-05-06 19:00 52.37238 13.50482 153 ft 51 kts 70°
2026-05-06 19:01 52.37298 13.51070 155 ft 27 kts 97°
2026-05-06 19:01 52.37285 13.51214 156 ft 7 kts 98°
2026-05-06 19:01 52.37278 13.51291 157 ft 5 kts 98°
2026-05-06 19:01 52.37267 13.51353 157 ft 5 kts 122°
2026-05-06 19:02 52.37233 13.51397 157 ft 6 kts 158°
2026-05-06 19:02 52.37208 13.51412 157 ft 0 kts 159°
2026-05-06 19:02 52.37198 13.51418 158 ft 2 kts 159°
2026-05-06 19:02 52.37175 13.51431 158 ft 4 kts 161°
2026-05-06 19:03 52.37141 13.51428 158 ft 6 kts 209°
2026-05-06 19:03 52.37114 13.51353 157 ft 9 kts 250°
2026-05-06 19:03 52.37087 13.51239 157 ft 12 kts 249°
2026-05-06 19:03 52.37053 13.51094 156 ft 14 kts 248°
2026-05-06 19:04 52.37014 13.50929 155 ft 16 kts 247°
2026-05-06 19:04 52.36969 13.50752 154 ft 17 kts 248°
2026-05-06 19:04 52.36924 13.50561 153 ft 18 kts 249°
2026-05-06 19:04 52.36883 13.50380 153 ft 14 kts 248°
2026-05-06 19:05 52.36843 13.50222 152 ft 15 kts 235°
2026-05-06 19:05 52.36758 13.50182 152 ft 13 kts 187°
2026-05-06 19:05 52.36682 13.50171 151 ft 9 kts 162°
2026-05-06 19:05 52.36615 13.50211 151 ft 11 kts 159°
2026-05-06 19:06 52.36538 13.50260 151 ft 11 kts 158°
2026-05-06 19:06 52.36504 13.50307 151 ft 6 kts 98°
2026-05-06 19:06 52.36515 13.50385 152 ft 7 kts 68°
2026-05-06 19:06 52.36531 13.50454 152 ft 5 kts 69°
2026-05-06 19:07 52.36541 13.50492 152 ft 1 kts 68°
2026-05-06 19:07 52.36542 13.50498 152 ft 0 kts 68°